Weather History for Land O' Lakes, WI

Change the Weather History Date:

Monday, June 9, 2014

  Actual Average (KEGV) Record (KEGV)
Temperature  
Mean Temperature 53 °F -  
Max Temperature 68 °F 75 °F 86 °F (2012)
Min Temperature 39 °F 49 °F 37 °F (2006)
Degree Days  
Heating Degree Days 12    
Growing Degree Days 3 (Base 50)    
Moisture  
Dew Point 43 °F    
Average Humidity 70    
Maximum Humidity 100    
Minimum Humidity 36    
Precipitation  
Precipitation 0.00 in - - ()
Sea Level Pressure  
Sea Level Pressure 30.08 in    
Wind  
Wind Speed 1 mph (SSW)    
Max Wind Speed 7 mph    
Max Gust Speed -    
Visibility 10 miles    
Events Rain    
Averages and records for this station are not official NWS values.
T = Trace of Precipitation, MM = Missing Value Source: NWS Daily Summary

Daily Weather History Graph

Daily Weather History Graph

Search for Another Location

Airport:

Trip Planner

Search our weather history database for the weather conditions in past years. The results will help you decide how hot, cold, wet, or windy it might be!

Date:

Astronomy

Jun. 09, 2014 Rise Set
Actual Time 5:05 AM CDT 8:46 PM CDT
Civil Twilight 4:27 AM CDT 9:25 PM CDT
Nautical Twilight 3:35 AM CDT 10:16 PM CDT
Astronomical Twilight 2:25 AM CDT 11:27 PM CDT
Moon 4:57 PM CDT (6/9) 2:45 AM CDT (6/9)
Length of Visible Light 16h 57m
Length of Day
15h 41m
Waxing Gibbous, 85% of the Moon is Illuminated
Jun 9
Waxing Gibbous
Jun 12
Full
Jun 19
Last Quarter
Jun 27
New
Jul 5
First Quarter

Hourly Weather History & Observations

Time (CDT) Temp. Dew Point Humidity Pressure Visibility Wind Dir Wind Speed Gust Speed Precip Events Conditions
12:15 AM 48.4 °F 42.4 °F 80% 30.13 in 10.0 mi Calm Calm - N/A   Clear
12:35 AM 47.7 °F 43.5 °F 86% 30.13 in 10.0 mi Calm Calm - N/A   Clear
12:55 AM 47.3 °F 42.6 °F 84% 30.12 in 10.0 mi Calm Calm - N/A   Clear
1:15 AM 45.5 °F 43.3 °F 92% 30.12 in 10.0 mi Calm Calm - N/A   Clear
1:35 AM 44.6 °F 43.0 °F 94% 30.11 in 10.0 mi Calm Calm - N/A   Clear
1:55 AM 43.9 °F 42.6 °F 95% 30.11 in 10.0 mi Calm Calm - N/A   Clear
2:15 AM 42.8 °F 41.9 °F 97% 30.11 in 10.0 mi Calm Calm - N/A   Clear
2:35 AM 42.1 °F 41.4 °F 97% 30.11 in 10.0 mi Calm Calm - N/A   Clear
2:55 AM 41.0 °F 40.1 °F 97% 30.10 in 10.0 mi Calm Calm - N/A   Clear
3:15 AM 41.2 °F 40.6 °F 98% 30.10 in 10.0 mi Calm Calm - N/A   Clear
3:35 AM 40.3 °F 39.9 °F 99% 30.10 in 10.0 mi Calm Calm - N/A   Clear
3:55 AM 39.9 °F 39.6 °F 99% 30.10 in 10.0 mi Calm Calm - N/A   Clear
4:15 AM 39.2 °F 38.7 °F 98% 30.10 in 10.0 mi Calm Calm - N/A   Clear
4:35 AM 39.9 °F 39.7 °F 99% 30.10 in 10.0 mi Calm Calm - N/A   Clear
4:55 AM 40.1 °F 39.7 °F 99% 30.10 in 10.0 mi Calm Calm - N/A   Clear
5:15 AM 39.9 °F 39.4 °F 98% 30.10 in 10.0 mi Calm Calm - N/A   Clear
5:35 AM 40.8 °F 40.8 °F 100% 30.10 in 10.0 mi Calm Calm - N/A   Clear
5:55 AM 43.0 °F 42.6 °F 99% 30.10 in 10.0 mi Calm Calm - N/A   Clear
6:15 AM 44.4 °F 44.1 °F 99% 30.10 in 10.0 mi Calm Calm - N/A   Clear
6:35 AM 46.9 °F 45.3 °F 94% 30.10 in 10.0 mi Calm Calm - N/A   Clear
6:55 AM 48.2 °F 46.6 °F 94% 30.10 in 10.0 mi Calm Calm - N/A   Clear
7:15 AM 50.0 °F 45.3 °F 84% 30.10 in 10.0 mi Calm Calm - N/A   Clear
7:35 AM 51.1 °F 44.4 °F 78% 30.11 in 10.0 mi Calm Calm - N/A   Clear
7:55 AM 53.1 °F 42.3 °F 67% 30.11 in 10.0 mi Calm Calm - N/A   Clear
8:15 AM 54.7 °F 39.6 °F 57% 30.10 in 10.0 mi Calm Calm - N/A   Clear
8:35 AM 56.1 °F 37.0 °F 49% 30.11 in 10.0 mi SSE 3.5 mph - N/A   Clear
8:55 AM 57.4 °F 36.0 °F 45% 30.10 in 10.0 mi Calm Calm - N/A   Clear
9:15 AM 58.5 °F 34.2 °F 40% 30.10 in 10.0 mi SSE 4.6 mph - N/A   Clear
9:35 AM 61.0 °F 34.2 °F 37% 30.10 in 10.0 mi South 6.9 mph - N/A   Scattered Clouds
9:55 AM 60.1 °F 33.6 °F 37% 30.10 in 10.0 mi South 6.9 mph - N/A   Scattered Clouds
10:15 AM 60.3 °F 37.0 °F 42% 30.09 in 10.0 mi SE 4.6 mph - N/A   Clear
10:35 AM 61.0 °F 35.6 °F 39% 30.09 in 10.0 mi South 5.8 mph - N/A   Mostly Cloudy
10:55 AM 61.2 °F 34.2 °F 36% 30.09 in 10.0 mi SSE 3.5 mph - N/A   Overcast
11:35 AM 61.2 °F 36.5 °F 40% 30.09 in 10.0 mi SW 3.5 mph - N/A Rain Light Rain
11:55 AM 60.4 °F 38.8 °F 45% 30.10 in 10.0 mi WSW 3.5 mph - N/A Rain Light Rain
12:15 PM 59.9 °F 41.5 °F 51% 30.10 in 10.0 mi Calm Calm - N/A   Light Drizzle
12:35 PM 59.9 °F 43.2 °F 54% 30.09 in 10.0 mi Calm Calm - N/A Rain Light Rain
12:55 PM 60.8 °F 44.8 °F 56% 30.07 in 10.0 mi ESE 4.6 mph - N/A Rain Light Rain
1:15 PM 62.2 °F 42.8 °F 49% 30.07 in 10.0 mi Calm Calm - N/A   Mostly Cloudy
1:35 PM 61.0 °F 43.3 °F 52% 30.07 in 10.0 mi Calm Calm - N/A   Overcast
2:35 PM 65.5 °F 40.6 °F 40% 30.05 in 10.0 mi SW 4.6 mph - N/A   Mostly Cloudy
2:55 PM 65.1 °F 41.2 °F 42% 30.06 in 10.0 mi SW 5.8 mph - N/A   Overcast
3:15 PM 65.3 °F 43.5 °F 45% 30.05 in 10.0 mi Calm Calm - N/A   Overcast
3:35 PM 65.5 °F 43.2 °F 44% 30.05 in 10.0 mi WSW 3.5 mph - N/A   Overcast
4:15 PM 65.7 °F 45.1 °F 47% 30.05 in 10.0 mi Calm Calm - N/A   Overcast
4:35 PM 65.5 °F 45.0 °F 47% 30.04 in 10.0 mi West 3.5 mph - N/A   Overcast
4:55 PM 67.1 °F 46.2 °F 47% 30.04 in 10.0 mi Calm Calm - N/A   Overcast
5:15 PM 66.6 °F 45.3 °F 46% 30.04 in 10.0 mi SSW 5.8 mph - N/A   Mostly Cloudy
5:35 PM 65.8 °F 45.1 °F 47% 30.05 in 10.0 mi WSW 4.6 mph - N/A   Mostly Cloudy
5:55 PM 66.0 °F 44.4 °F 46% 30.04 in 10.0 mi Calm Calm - N/A   Mostly Cloudy
6:15 PM 65.7 °F 45.3 °F 48% 30.04 in 10.0 mi Calm Calm - N/A   Mostly Cloudy
6:35 PM 64.9 °F 46.0 °F 50% 30.04 in 10.0 mi Calm Calm - N/A   Overcast
6:55 PM 66.4 °F 45.0 °F 46% 30.03 in 10.0 mi Calm Calm - N/A   Mostly Cloudy
7:15 PM 65.5 °F 43.7 °F 45% 30.03 in 10.0 mi Calm Calm - N/A   Scattered Clouds
7:35 PM 65.3 °F 46.8 °F 51% 30.03 in 10.0 mi Calm Calm - N/A   Clear
7:55 PM 64.0 °F 46.8 °F 53% 30.03 in 10.0 mi Calm Calm - N/A   Clear
8:15 PM 62.4 °F 49.1 °F 62% 30.03 in 7.0 mi Calm Calm - N/A   Clear
8:35 PM 57.0 °F 51.6 °F 82% 30.03 in 10.0 mi Calm Calm - N/A   Clear
8:55 PM 54.5 °F 50.0 °F 85% 30.04 in 10.0 mi Calm Calm - N/A   Clear
9:15 PM 52.7 °F 49.3 °F 88% 30.04 in 10.0 mi Calm Calm - N/A   Clear
9:35 PM 50.5 °F 49.1 °F 95% 30.04 in 10.0 mi Calm Calm - N/A   Clear
9:55 PM 49.5 °F 48.4 °F 96% 30.04 in 10.0 mi Calm Calm - N/A   Clear
10:15 PM 48.6 °F 47.5 °F 96% 30.05 in 10.0 mi Calm Calm - N/A   Clear
10:35 PM 48.2 °F 47.5 °F 97% 30.05 in 10.0 mi Calm Calm - N/A   Clear
10:55 PM 47.7 °F 46.9 °F 97% 30.05 in 10.0 mi Calm Calm - N/A   Clear
11:15 PM 46.8 °F 46.0 °F 97% 30.05 in 7.0 mi Calm Calm - N/A   Clear
11:35 PM 46.8 °F 46.4 °F 99% 30.05 in 7.0 mi Calm Calm - N/A   Clear
11:55 PM 45.0 °F 44.6 °F 99% 30.05 in 7.0 mi Calm Calm - N/A   Clear